Weather History for KTDF - March, 2011

Change the Weather History Date:

Monday, March 21, 2011

  Actual Average Record
Temperature  
Mean Temperature 62 °F -  
Max Temperature 73 °F 62 °F 88 °F (1968)
Min Temperature 51 °F 37 °F 14 °F (1965)
Degree Days  
Heating Degree Days 3    
Growing Degree Days 12 (Base 50)    
Moisture  
Dew Point 45 °F    
Average Humidity 59    
Maximum Humidity 77    
Minimum Humidity 47    
Precipitation  
Precipitation 0.00 in - - ()
Sea Level Pressure  
Sea Level Pressure 30.26 in    
Wind  
Wind Speed 7 mph (SW)    
Max Wind Speed 23 mph    
Max Gust Speed 31 mph    
Visibility 10 miles    
Events      
Averages and records for this station are not official NWS values.
T = Trace of Precipitation, MM = Missing Value Source: NWS Daily Summary

Daily Weather History Graph

Daily Weather History Graph

Search for Another Location

Airport or City:

Trip Planner

Search our weather history database for the weather conditions in past years. The results will help you decide how hot, cold, wet, or windy it might be!

Date:

Astronomy

Mar. 21, 2011 Rise Set
Actual Time 7:18 AM EDT 7:28 PM EDT
Civil Twilight 6:52 AM EDT 7:54 PM EDT
Nautical Twilight 6:22 AM EDT 8:24 PM EDT
Astronomical Twilight 5:52 AM EDT 8:54 PM EDT
Moon 10:13 PM EDT (3/21) 8:05 AM EDT (3/21)
Length of Visible Light 13h 01m
Length of Day
12h 09m
Waning Gibbous, 95% of the Moon is Illuminated
Mar 21
Waning Gibbous
Mar 26
Last Quarter
Apr 3
New
Apr 11
First Quarter
Apr 17
Full

Hourly Weather History & Observations

Time (EDT) Temp. Dew Point Humidity Pressure Visibility Wind Dir Wind Speed Gust Speed Precip Events Conditions
12:01 AM 53.6 °F 35.6 °F 51% 30.43 in 10.0 mi Calm Calm - N/A   Overcast
12:21 AM 53.6 °F 35.6 °F 51% 30.43 in 10.0 mi Calm Calm - N/A   Overcast
12:42 AM 53.6 °F 35.6 °F 51% 30.42 in 10.0 mi Calm Calm - N/A   Overcast
1:01 AM 53.6 °F 35.6 °F 51% 30.41 in 10.0 mi Calm Calm - N/A   Overcast
1:21 AM 51.8 °F 35.6 °F 54% 30.40 in 10.0 mi Calm Calm - N/A   Overcast
1:41 AM 51.8 °F 35.6 °F 54% 30.40 in 10.0 mi Calm Calm - N/A   Mostly Cloudy
2:01 AM 51.8 °F 35.6 °F 54% 30.39 in 10.0 mi Calm Calm - N/A   Overcast
2:21 AM 51.8 °F 35.6 °F 54% 30.38 in 10.0 mi Calm Calm - N/A   Overcast
2:41 AM 51.8 °F 35.6 °F 54% 30.38 in 10.0 mi Calm Calm - N/A   Overcast
3:01 AM 51.8 °F 35.6 °F 54% 30.36 in 10.0 mi Calm Calm - N/A   Overcast
3:21 AM 51.8 °F 35.6 °F 54% 30.36 in 10.0 mi Calm Calm - N/A   Overcast
3:41 AM 51.8 °F 37.4 °F 58% 30.35 in 10.0 mi Calm Calm - N/A   Overcast
4:01 AM 51.8 °F 37.4 °F 58% 30.36 in 10.0 mi Calm Calm - N/A   Overcast
4:21 AM 53.6 °F 37.4 °F 54% 30.35 in 10.0 mi Calm Calm - N/A   Overcast
4:41 AM 53.6 °F 37.4 °F 54% 30.34 in 10.0 mi Calm Calm - N/A   Overcast
5:01 AM 53.6 °F 39.2 °F 58% 30.33 in 10.0 mi South 6.9 mph - N/A   Overcast
5:21 AM 53.6 °F 39.2 °F 58% 30.33 in 10.0 mi SSW 8.1 mph - N/A   Overcast
5:43 AM 53.6 °F 39.2 °F 58% 30.31 in 10.0 mi South 12.7 mph - N/A   Overcast
6:01 AM 53.6 °F 39.2 °F 58% 30.32 in 10.0 mi SSW 9.2 mph - N/A   Overcast
6:21 AM 53.6 °F 41.0 °F 62% 30.32 in 10.0 mi SSW 10.4 mph - N/A   Overcast
6:41 AM 53.6 °F 41.0 °F 62% 30.32 in 10.0 mi SSW 10.4 mph - N/A   Overcast
7:01 AM 53.6 °F 42.8 °F 67% 30.31 in 10.0 mi SSW 9.2 mph - N/A   Overcast
7:21 AM 53.6 °F 42.8 °F 67% 30.31 in 10.0 mi SSW 10.4 mph 16.1 mph N/A   Overcast
7:41 AM 53.6 °F 42.8 °F 67% 30.30 in 10.0 mi SSW 15.0 mph 19.6 mph N/A   Overcast
8:02 AM 53.6 °F 44.6 °F 72% 30.31 in 10.0 mi SSW 12.7 mph 19.6 mph N/A   Overcast
8:21 AM 53.6 °F 44.6 °F 72% 30.31 in 10.0 mi SW 13.8 mph 19.6 mph N/A   Overcast
8:43 AM 55.4 °F 46.4 °F 72% 30.31 in 10.0 mi SSW 12.7 mph - N/A   Overcast
9:03 AM 55.4 °F 48.2 °F 77% 30.30 in 10.0 mi SSW 12.7 mph 20.7 mph N/A   Overcast
9:21 AM 55.4 °F 48.2 °F 77% 30.30 in 10.0 mi SW 16.1 mph 21.9 mph N/A   Overcast
9:41 AM 57.2 °F 48.2 °F 72% 30.28 in 10.0 mi SW 17.3 mph 24.2 mph N/A   Overcast
10:01 AM 57.2 °F 48.2 °F 72% 30.27 in 10.0 mi SSW 16.1 mph 20.7 mph N/A   Overcast
10:21 AM 59.0 °F 50.0 °F 72% 30.26 in 10.0 mi SSW 17.3 mph 20.7 mph N/A   Overcast
10:41 AM 60.8 °F 51.8 °F 72% 30.25 in 10.0 mi SW 17.3 mph 24.2 mph N/A   Mostly Cloudy
11:01 AM 62.6 °F 51.8 °F 68% 30.24 in 10.0 mi SW 19.6 mph 25.3 mph N/A   Mostly Cloudy
11:21 AM 64.4 °F 51.8 °F 64% 30.24 in 10.0 mi SW 21.9 mph 29.9 mph N/A   Overcast
11:41 AM 64.4 °F 51.8 °F 64% 30.22 in 10.0 mi SW 23.0 mph 28.8 mph N/A   Scattered Clouds
12:01 PM 66.2 °F 51.8 °F 60% 30.21 in 10.0 mi SW 20.7 mph 29.9 mph N/A   Scattered Clouds
12:21 PM 66.2 °F 53.6 °F 64% 30.21 in 10.0 mi WSW 18.4 mph 31.1 mph N/A   Clear
12:41 PM 68.0 °F 53.6 °F 60% 30.20 in 10.0 mi SW 18.4 mph 27.6 mph N/A   Scattered Clouds
1:01 PM 69.8 °F 53.6 °F 56% 30.19 in 10.0 mi WSW 19.6 mph 25.3 mph N/A   Clear
1:21 PM 69.8 °F 53.6 °F 56% 30.17 in 10.0 mi SW 19.6 mph 27.6 mph N/A   Clear
1:43 PM 71.6 °F 53.6 °F 53% 30.16 in 10.0 mi SW 16.1 mph 25.3 mph N/A   Clear
2:01 PM 71.6 °F 53.6 °F 53% 30.14 in 10.0 mi SW 16.1 mph 21.9 mph N/A   Clear
2:21 PM 71.6 °F 53.6 °F 53% 30.13 in 10.0 mi SW 20.7 mph 26.5 mph N/A   Clear
2:41 PM 71.6 °F 51.8 °F 50% 30.12 in 10.0 mi SW 19.6 mph 25.3 mph N/A   Clear
3:01 PM 71.6 °F 53.6 °F 53% 30.11 in 10.0 mi SW 13.8 mph 25.3 mph N/A   Clear
3:21 PM 71.6 °F 53.6 °F 53% 30.10 in 10.0 mi SW 18.4 mph - N/A   Clear
3:41 PM 71.6 °F 53.6 °F 53% 30.09 in 10.0 mi SW 18.4 mph 24.2 mph N/A   Clear
4:01 PM 71.6 °F 53.6 °F 53% 30.08 in 10.0 mi SSW 15.0 mph 18.4 mph N/A   Clear
4:21 PM 71.6 °F 53.6 °F 53% 30.06 in 10.0 mi SSW 18.4 mph - N/A   Clear
4:41 PM 73.4 °F 53.6 °F 50% 30.06 in 10.0 mi SSW 15.0 mph 20.7 mph N/A   Clear
5:01 PM 73.4 °F 53.6 °F 50% 30.04 in 10.0 mi SW 13.8 mph 20.7 mph N/A   Clear
5:21 PM 73.4 °F 51.8 °F 47% 30.04 in 10.0 mi SW 17.3 mph 24.2 mph N/A   Clear
5:41 PM 73.4 °F 53.6 °F 50% 30.03 in 10.0 mi SW 16.1 mph - N/A   Clear
6:01 PM 73.4 °F 53.6 °F 50% 30.02 in 10.0 mi SW 16.1 mph 23.0 mph N/A   Clear
6:21 PM 73.4 °F 53.6 °F 50% 30.02 in 10.0 mi SW 13.8 mph 20.7 mph N/A   Clear
6:41 PM 73.4 °F 53.6 °F 50% 30.02 in 10.0 mi SW 12.7 mph 19.6 mph N/A   Clear
7:01 PM 73.4 °F 51.8 °F 47% 30.02 in 10.0 mi SW 17.3 mph 23.0 mph N/A   Clear
7:21 PM 71.6 °F 51.8 °F 50% 30.03 in 10.0 mi SW 13.8 mph 21.9 mph N/A   Clear
7:41 PM 71.6 °F 51.8 °F 50% 30.03 in 10.0 mi SW 15.0 mph 19.6 mph N/A   Clear
8:01 PM 69.8 °F 51.8 °F 53% 30.03 in 10.0 mi SW 9.2 mph - N/A   Clear
8:22 PM 69.8 °F 51.8 °F 53% 30.03 in 10.0 mi SW 11.5 mph - N/A   Clear
8:42 PM 69.8 °F 51.8 °F 53% 30.03 in 10.0 mi SW 10.4 mph - N/A   Clear
9:01 PM 69.8 °F 51.8 °F 53% 30.03 in 10.0 mi SW 11.5 mph 18.4 mph N/A   Clear
9:21 PM 69.8 °F 51.8 °F 53% 30.03 in 10.0 mi SW 9.2 mph - N/A   Clear
9:41 PM 68.0 °F 51.8 °F 56% 30.03 in 10.0 mi SW 9.2 mph 16.1 mph N/A   Clear
10:01 PM 68.0 °F 51.8 °F 56% 30.03 in 10.0 mi SW 10.4 mph 17.3 mph N/A   Clear
10:21 PM 68.0 °F 51.8 °F 56% 30.03 in 10.0 mi SW 11.5 mph 19.6 mph N/A   Clear
10:41 PM 66.2 °F 51.8 °F 60% 30.02 in 10.0 mi SW 12.7 mph 19.6 mph N/A   Clear
11:01 PM 66.2 °F 51.8 °F 60% 30.02 in 10.0 mi SW 10.4 mph 18.4 mph N/A   Clear
11:21 PM 66.2 °F 51.8 °F 60% 30.02 in 10.0 mi SW 10.4 mph 16.1 mph N/A   Clear
11:41 PM 66.2 °F 50.0 °F 56% 30.02 in 10.0 mi SW 11.5 mph 18.4 mph N/A   Clear